Location: Coupvray
(48.8929°N, 2.7967°E)
Time: 04:20:51
(UTC+00:00)

ATLAS 5 CENTAUR R/B - Pass Details

Date: 14 July 2020
Orbit: 275 x 14306 km, 60.7° (Epoch: 06 August)

Event Time Altitude Azimuth Distance (km) Brightness Sun altitude
Rises 02:43:03 0° 301° (WNW) 2,598 5.2 -10.1°
Reaches altitude 10° 02:44:34 10° 289° (WNW) 2,041 4.5 -10.0°
Maximum altitude 02:48:30 34° 223° (SW) 1,767 3.8 -9.6°
Drops below altitude 10° 02:59:54 10° 165° (SSE) 6,043 6.8 -8.3°
Sets 03:08:45 0° 161° (SSE) 9,230 7.8 -7.3°
